Wind_Speed
17 17 14 14 12 11 10 9 8 7 6 6 6 6 9 11 12 14 16 18 19 20 16 8 5 5 1 2 4 1 2 2 1 3 4 3 2 3 4 4 1 1 2 2 2 2 1
18 17 18 17 15 13 12 11 10 9 8 7 7 7 8 9 11 13 16 17 19 18 12 5 4 2 1 3 2 1 1 2 3 4 2 3 5 3 4 2 3 3 2 2 2 1 2
21 19 19 19 17 16 14 13 12 11 9 8 7 8 8 10 11 13 14 16 18 14 8 4 3 2 1 4 0 2 1 2 3 4 4 3 7 3 4 3 2 3 2 1 1 1 1
26 24 22 20 19 18 17 15 14 12 11 9 8 8 9 11 11 13 15 15 15 9 6 4 3 1 3 1 1 2 1 2 3 3 4 4 4 6 3 4 5 2 4 1 2 3 2
28 27 25 23 21 20 19 17 16 15 13 11 9 9 10 11 12 14 15 16 12 5 2 2 1 1 4 0 1 2 2 1 2 3 3 4 2 3 3 5 4 5 3 4 4 3 2
30 28 28 27 25 23 21 19 18 16 14 12 10 9 10 11 12 14 13 14 4 2 2 1 2 3 1 1 1 2 2 2 1 3 3 4 4 3 3 3 4 5 4 3 4 2 0
32 31 30 29 28 25 23 20 18 16 15 13 11 9 9 10 11 13 13 2 4 2 1 5 5 3 2 2 1 1 1 2 2 3 3 4 2 6 10 6 2 4 4 4 3 0 1
30 35 30 28 28 28 25 22 19 17 15 13 11 9 8 8 9 8 5 5 3 0 5 1 1 2 3 3 0 1 2 3 2 4 2 4 5 4 3 3 2 2 1 4 3 1 0
29 22 31 28 29 28 26 24 21 18 15 11 10 9 8 7 6 1 8 5 3 1 1 5 2 2 2 5 5 5 5 4 4 5 6 6 2 3 4 2 3 1 3 3 3 2 1
30 27 15 20 28 27 26 25 23 19 16 13 11 8 7 7 3 4 4 5 4 3 5 6 1 2 2 2 2 2 4 4 2 8 7 5 1 4 4 3 6 2 2 2 3 3 3
25 26 25 19 8 30 27 27 24 21 18 14 11 8 5 5 0 2 4 5 5 3 3 3 1 0 2 2 2 1 1 2 6 6 6 6 7 5 3 6 7 4 3 4 3 4 4
20 22 23 22 18 9 32 29 27 25 20 19 15 11 5 3 2 2 4 3 2 6 6 1 2 2 3 2 1 0 2 2 1 3 2 3 2 4 6 3 1 9 5 5 4 3 1
18 18 20 20 18 16 0 37 34 26 20 21 18 13 7 5 1 4 4 1 4 5 2 5 4 3 3 4 2 2 3 3 5 4 4 1 3 0 3 6 5 1 5 2 3 1 6
16 13 16 19 18 18 6 6 22 24 22 18 17 14 9 6 7 4 2 4 4 5 6 2 4 4 6 7 2 5 4 3 5 3 3 5 5 7 3 2 6 5 5 5 7 4 3
16 12 11 12 13 14 8 9 14 16 14 15 15 14 7 8 11 7 2 7 7 7 5 8 3 4 5 4 4 4 6 5 8 11 8 5 5 1 1 2 2 5 4 1 3 2 1
16 12 10 11 11 9 11 5 8 8 12 10 11 9 5 11 13 7 4 11 5 5 2 2 8 5 7 7 7 6 7 4 5 11 1 5 2 1 0 2 3 3 4 3 2 3 6
17 14 12 11 8 11 5 3 4 6 8 9 6 3 5 11 14 3 12 8 6 5 4 4 4 3 4 6 7 6 4 3 5 3 4 5 4 1 3 7 9 3 3 1 2 4 4
17 17 15 12 13 9 4 3 4 5 4 8 4 2 4 16 5 3 11 6 3 6 3 4 1 4 7 7 6 5 8 4 3 7 8 6 4 5 10 1 2 3 6 6 4 5 3
15 16 16 16 14 10 8 5 6 6 6 4 2 2 2 1 7 9 3 11 3 11 7 7 8 6 5 7 3 6 6 4 7 2 5 5 4 2 1 3 2 4 4 4 2 3 12
15 15 15 15 15 12 7 8 9 9 7 4 1 2 1 2 2 1 3 3 7 4 4 1 1 2 4 5 5 3 7 4 3 5 7 1 4 7 13 3 4 4 5 5 8 8 11
13 13 12 13 14 15 15 11 9 10 10 7 2 1 2 2 2 2 1 2 3 2 2 6 4 2 2 6 9 8 3 2 7 8 4 3 6 5 9 4 4 6 6 7 10 11 10
10 11 9 11 14 14 16 16 12 10 11 5 3 1 1 2 2 3 3 2 2 3 3 3 4 3 5 3 3 3 2 3 2 5 3 3 5 4 11 2 5 8 7 8 13 14 16
8 10 7 9 11 14 16 15 18 16 13 4 4 2 2 2 2 2 2 3 4 2 3 5 4 3 7 3 1 0 0 1 1 1 0 1 1 2 5 4 4 8 3 5 4 9 3
7 7 7 8 11 9 14 15 15 20 22 4 5 5 3 3 2 3 3 2 3 3 3 2 3 3 3 3 3 3 5 6 7 7 4 1 1 2 2 2 5 4 4 9 13 10 7
6 5 5 8 10 10 16 18 13 15 24 8 9 4 2 2 3 4 7 4 4 2 2 3 2 2 2 1 2 3 1 1 5 6 11 8 1 2 3 3 1 1 4 2 2 4 6
4 3 3 5 12 9 14 1 14 15 18 20 11 6 4 4 4 4 5 4 3 3 4 3 2 4 2 2 2 2 2 2 1 1 4 7 6 2 2 3 3 3 2 4 3 4 2
6 5 4 3 5 7 5 11 3 6 12 20 8 13 3 3 1 4 3 4 4 3 2 2 3 3 2 2 1 2 3 1 3 3 3 3 3 7 6 4 2 5 4 3 4 4 5
8 7 4 2 3 8 8 7 11 5 7 14 10 19 8 2 2 3 2 4 3 3 4 3 2 0 2 3 2 3 3 3 0 3 3 5 4 3 2 2 6 4 2 4 4 6 6
8 7 6 4 2 3 11 9 10 11 8 13 4 16 10 4 2 4 3 3 3 6 3 2 3 3 3 2 1 2 2 0 3 2 1 3 4 3 6 3 2 4 4 3 4 4 4
Wind_Direction
247 245 247 247 250 244 239 234 232 237 245 264 289 307 323 331 336 339 339 340 338 334 329 322 316 331 257 250 241 183 355 40 129 154 146 152 129 135 150 137 98 98 169 99 132 138 77
254 248 249 246 244 246 244 243 241 241 245 252 277 297 311 321 327 332 334 337 336 333 329 323 330 321 254 263 140 45 78 122 124 159 147 149 162 173 108 119 137 160 166 171 171 141 97
245 245 245 248 247 245 245 245 250 251 254 260 268 288 304 312 320 325 328 332 334 333 331 333 340 330 299 247 183 9 96 106 92 155 137 158 141 118 130 107 138 125 164 306 250 201 171
248 245 241 241 247 250 246 246 249 253 258 263 276 291 301 307 314 319 323 325 326 322 321 335 338 331 241 179 176 47 66 64 90 86 113 131 132 105 82 129 31 82 55 121 214 178 206
244 245 240 239 238 244 249 250 247 251 256 263 271 284 296 306 314 320 321 321 312 295 283 323 37 64 283 47 48 38 47 349 77 79 73 109 59 91 61 99 22 9 226 205 297 213 162
241 240 242 240 237 236 238 246 251 250 254 260 269 280 291 305 316 320 321 320 288 268 218 92 95 45 28 321 5 356 36 94 43 82 33 24 46 77 53 109 213 202 218 253 256 13 199
243 238 238 239 238 235 234 236 240 249 253 257 260 273 290 306 317 325 329 337 17 323 31 194 166 169 190 275 270 41 57 80 58 55 188 358 80 212 207 198 131 140 172 198 219 25 283
353 237 234 234 237 236 233 231 232 234 241 253 262 268 285 307 323 333 347 71 72 81 315 49 249 265 198 163 90 158 157 128 124 193 118 26 246 249 73 151 142 131 179 251 283 139 247
338 11 231 234 234 235 230 228 226 227 228 232 249 265 288 307 318 65 85 108 88 22 141 298 214 211 211 169 196 200 154 150 155 159 188 169 229 107 116 115 152 202 195 220 235 333 76
339 343 360 235 234 233 229 226 221 216 215 219 230 248 286 322 248 142 127 126 103 104 59 273 234 330 67 122 272 164 193 148 165 198 167 228 218 151 141 178 139 242 299 73 85 68 252
329 341 350 3 263 228 227 224 219 214 211 213 221 234 261 330 223 180 142 141 125 102 20 272 184 64 58 143 103 354 333 27 174 181 132 232 165 166 160 191 169 194 115 105 87 86 358
322 327 333 342 353 237 228 224 220 214 209 199 204 210 213 299 230 170 164 146 119 54 251 41 121 139 105 38 41 75 34 43 105 114 330 247 340 173 184 112 149 151 93 67 68 115 217
315 322 323 331 335 337 310 217 217 207 206 198 190 193 196 180 175 171 168 82 52 152 250 195 170 160 155 173 187 158 158 177 163 114 233 308 225 355 122 81 24 111 94 325 330 357 227
297 311 323 326 332 329 314 124 175 177 178 180 176 178 183 178 161 147 135 58 187 220 201 144 134 124 183 156 196 164 134 215 218 99 119 166 307 166 183 213 179 189 173 171 223 220 266
283 296 305 313 315 314 25 138 146 153 153 169 170 162 174 185 183 173 124 213 202 205 182 162 106 157 209 201 153 153 196 210 209 175 183 156 271 126 58 150 136 192 196 219 39 92 17
269 274 276 298 294 286 318 106 113 139 143 154 145 152 173 174 178 151 211 220 220 208 204 129 187 168 179 188 157 179 187 202 231 196 143 196 265 4 111 112 39 176 167 84 22 277 263
275 256 269 268 286 292 261 335 100 125 129 147 115 140 165 160 150 198 221 219 196 221 210 179 213 173 190 176 178 191 202 236 213 121 182 151 157 248 121 205 179 151 220 74 148 164 222
270 256 256 257 256 275 304 225 211 90 110 138 160 189 153 167 180 198 222 198 217 200 155 233 127 205 191 178 180 217 206 248 192 151 160 213 158 191 206 214 198 212 207 163 185 226 230
275 265 246 253 254 245 230 245 195 161 170 142 154 110 24 233 203 207 195 211 191 197 197 192 211 200 196 191 218 192 199 50 19 115 154 186 217 301 311 4 359 211 208 210 109 106 233
275 268 251 253 253 228 220 201 194 176 176 150 207 154 89 32 11 65 187 192 180 25 74 28 126 118 164 214 242 233 201 38 54 38 8 351 225 201 247 185 111 174 198 208 212 244 257
275 279 259 248 246 236 226 217 211 200 183 151 354 78 39 175 201 128 66 91 106 114 59 16 62 357 172 222 215 221 52 60 64 7 44 30 251 207 261 226 214 203 203 197 213 234 232
276 286 264 237 257 254 245 218 212 187 158 103 134 194 66 94 94 95 78 63 90 98 56 58 90 74 36 91 35 70 46 42 48 17 51 23 275 7 280 265 256 277 275 256 243 255 259
289 288 258 236 236 245 242 239 231 199 174 130 151 112 112 87 74 80 38 66 74 85 67 64 108 96 80 69 77 104 350 318 39 24 85 290 303 81 285 35 16 281 325 275 139 44 354
294 287 267 239 209 239 231 228 241 212 189 168 163 133 123 140 129 112 126 96 92 70 90 76 98 87 181 219 264 236 236 237 238 229 223 237 199 172 255 95 226 121 19 68 100 88 67
300 293 265 245 222 222 227 233 237 222 204 187 159 134 128 121 144 128 168 150 155 123 121 122 155 211 154 152 51 36 54 230 230 223 211 211 187 246 249 208 10 117 50 18 305 154 14
9 345 321 289 217 236 207 237 216 228 224 190 166 113 98 123 229 124 149 166 142 167 159 128 102 141 114 69 66 116 206 235 295 229 177 189 219 239 208 235 237 140 209 284 217 215 264
25 8 345 333 221 192 210 219 118 205 206 184 172 179 125 108 207 141 160 165 144 121 108 122 146 166 150 166 162 174 242 225 213 215 186 164 189 224 246 267 275 142 245 211 58 280 323
18 11 1 349 239 227 207 213 205 183 185 184 172 181 150 126 196 170 145 127 114 132 146 177 110 94 152 180 161 215 204 220 133 242 188 181 169 210 149 220 250 189 234 130 217 290 288
4 355 349 339 298 234 209 205 216 195 185 183 130 181 174 103 152 193 180 172 96 116 117 210 178 160 166 118 155 121 214 228 176 246 360 248 197 196 187 205 121 188 180 226 262 260 272
Height
819 821 821 822 821 820 820 819 819 819 819 819 819 818 818 818 816 815 813 811 809 806 803 802 802 801 801 803 799 798 798 798 799 799 798 800 801 805 810 811 812 813 815 814 814 814 815
814 816 817 818 818 818 818 818 818 818 817 816 816 816 815 815 814 813 811 809 807 804 801 801 801 800 801 806 798 797 797 797 797 798 799 797 800 802 808 811 812 814 814 814 814 814 815
809 810 813 815 815 816 815 815 817 817 816 815 813 814 813 813 811 810 808 806 805 803 801 800 800 800 801 801 798 798 798 797 797 797 798 798 797 799 805 812 812 813 817 815 815 815 815
804 805 807 808 811 812 813 813 814 814 814 813 812 811 811 811 809 807 805 803 802 801 800 799 800 800 801 799 799 798 799 799 798 798 798 799 799 800 804 810 816 818 822 822 815 815 814
798 800 801 803 805 807 810 810 811 811 812 811 810 810 809 808 807 805 802 800 798 798 798 798 800 801 802 800 800 799 799 800 800 799 800 800 801 806 809 818 829 828 827 827 817 815 815
792 794 796 798 800 802 803 806 808 808 809 809 809 808 808 807 805 802 799 796 796 797 796 797 799 805 802 802 801 800 800 800 800 801 803 805 810 815 820 822 835 824 826 826 822 819 819
787 786 789 792 795 796 798 800 803 804 805 807 807 806 806 805 803 800 797 795 799 799 795 793 795 798 799 800 800 800 800 801 801 804 811 812 817 820 813 815 811 816 819 818 817 822 821
775 778 781 785 789 791 792 794 797 799 801 804 805 804 805 804 802 799 798 798 805 808 804 795 796 796 795 796 799 799 800 804 805 812 812 819 822 812 812 816 814 818 821 823 820 821 822
781 772 775 777 781 785 786 789 791 795 797 799 802 803 802 802 800 799 798 800 801 803 808 798 796 797 797 797 796 798 799 802 805 814 815 819 810 811 810 818 819 822 826 824 820 823 827
776 772 768 770 774 778 781 784 787 789 792 795 798 800 801 800 803 798 799 799 798 801 831 806 797 796 798 797 798 796 797 799 804 810 816 813 810 809 811 814 820 821 823 824 827 830 832
778 771 768 767 765 770 775 780 783 784 787 790 794 796 798 800 799 799 800 799 797 800 854 798 798 798 798 802 802 800 799 799 805 807 810 806 810 811 812 810 812 817 823 830 837 848 842
779 776 771 769 763 764 768 773 777 779 783 784 788 792 795 798 798 800 800 799 799 829 843 802 797 799 799 801 801 802 801 800 801 805 807 806 806 806 804 815 813 824 825 836 851 848 849
778 774 772 769 766 763 761 764 768 774 777 779 781 788 792 794 797 799 799 801 827 842 797 794 797 798 798 801 803 803 805 806 810 819 815 808 809 808 809 818 820 819 823 840 843 853 821
777 774 772 769 766 766 759 760 759 764 771 777 778 783 788 791 794 797 800 809 826 800 796 786 791 795 798 799 800 804 807 809 807 809 824 819 817 811 807 806 811 824 817 829 833 833 819
774 772 773 772 772 767 766 759 760 763 766 773 777 779 785 787 792 796 801 803 808 800 785 788 789 791 796 793 796 802 808 807 799 800 804 817 808 807 807 807 809 821 827 818 820 840 848
771 771 771 772 772 770 769 765 763 766 765 773 774 779 782 784 790 795 798 791 796 787 781 782 785 783 791 796 798 803 805 792 789 791 784 794 804 810 809 807 812 810 813 822 833 827 821
767 768 769 770 771 770 767 764 767 768 769 771 774 781 782 783 788 792 781 782 783 780 780 782 785 785 786 791 793 799 791 784 785 788 790 795 798 814 809 810 808 815 816 816 817 822 819
764 764 765 767 768 767 766 767 769 765 770 772 778 778 780 782 785 780 774 775 773 776 779 782 783 786 787 787 792 796 790 787 782 785 792 790 801 813 801 800 801 802 801 803 807 807 826
760 760 761 763 765 764 766 768 768 770 773 776 777 778 779 780 771 769 769 769 771 773 776 779 782 782 783 784 786 788 785 790 790 783 788 789 794 808 796 803 801 801 800 795 795 799 790
756 756 757 759 759 762 766 768 769 771 774 778 779 779 780 781 784 779 769 770 771 788 788 788 784 785 783 785 780 778 784 796 794 797 793 791 788 784 773 783 789 796 800 798 790 788 778
754 753 754 755 758 761 764 766 768 771 773 776 781 779 779 781 785 785 785 787 784 786 794 793 793 794 788 782 779 780 794 797 801 803 800 801 790 786 776 779 783 785 786 790 791 786 784
751 750 752 753 756 759 760 764 767 770 772 774 780 781 785 786 787 786 785 788 787 792 794 794 795 800 801 798 802 803 805 805 804 807 806 809 792 798 780 783 784 786 787 785 780 780 776
748 749 750 751 753 756 759 762 765 768 772 773 777 781 782 785 786 786 788 790 792 793 798 799 800 799 802 807 809 810 810 811 812 812 809 811 807 805 796 794 797 793 792 783 780 808 799
746 748 748 750 751 754 757 761 763 764 768 771 772 776 783 787 786 787 792 793 794 796 797 802 804 802 809 808 809 809 810 810 811 811 813 811 807 807 802 804 796 804 804 799 803 812 815
745 746 747 749 751 752 756 758 761 763 766 768 770 773 781 792 785 788 792 792 794 796 799 801 805 805 806 807 814 812 809 808 804 806 808 812 810 809 803 796 791 805 809 805 803 809 812
745 746 747 748 749 752 754 756 758 761 763 766 769 772 776 785 790 781 789 792 794 796 798 800 802 805 805 808 818 825 814 800 801 800 805 808 812 810 805 797 791 806 809 805 805 797 801
746 746 746 747 748 750 753 755 757 758 761 762 768 773 775 783 784 784 790 789 792 797 802 801 803 805 805 808 818 819 816 804 812 802 805 801 805 807 803 798 798 803 805 802 812 807 796
748 747 747 747 748 749 751 754 756 759 761 763 766 770 775 781 783 783 784 788 792 795 801 802 804 805 805 808 816 814 816 811 817 810 803 804 807 813 815 816 809 799 798 805 801 797 798
750 749 749 748 748 749 751 753 755 758 761 763 766 768 773 778 783 783 784 786 787 789 796 800 800 801 801 812 821 818 816 827 821 814 805 807 798 800 798 799 794 795 795 795 797 799 797